Voltar ao catálogo

STARLINK-33870

AtivoComunicaçõesVLEO
NORAD 63794·PAYLOAD·🇺🇸 United States

Lançado May 2, 2025 de Cape Canaveral Space Force Station

Loading…

Próximas Passagens (próximas 24 horas)

TLE

AtualizadoSource: CelesTrak SupGP

Época: Sep 14, 2026, 23:02 UTC

1 63794C 25091V   26257.96020833  .00030830  00000+0  11170-2 0  2571
2 63794  43.0029  63.3406 0001467 277.8525  22.2787 15.27553547    18

Acompanhe STARLINK-33870 em tempo real com AllMySat

Download on the App Store